Location: Daerah Kuala Lumpur
(3.1167°N, 101.6833°E)
Time: 08:29:28
(UTC+00:00)

CZ-4C R/B - Pass Details

Date: 17 November 2024
Orbit: 515 x 1473 km, 63.4° (Epoch: 09 December)

Event Time Altitude Azimuth Distance (km) Brightness Sun altitude
Rises 11:38:08 0° 352° (N) 4,334 5.8 -10.4°
Reaches altitude 10° 11:41:07 10° 359° (N) 3,452 5.2 -11.1°
Maximum altitude 11:49:16 42° 67° (ENE) 1,983 3.6 -13.0°
Drops below altitude 10° 11:57:37 10° 134° (SE) 3,563 5.2 -15.0°
Sets 12:00:43 0° 141° (SE) 4,485 5.7 -15.7°
